Wind_Speed
4 3 3 4 5 6 6 6 6 6 6 6 6 5 5 5 5 5 6 7 8 9 10 10 10 9 9 8 7 7 6 5 5 4 4 4 4 4 3 3 3 2 2
5 5 5 6 6 7 7 7 7 7 7 7 7 6 6 6 6 6 6 7 8 9 10 10 10 9 9 8 7 7 6 6 5 4 4 3 3 3 3 3 2 2 2
6 6 6 7 7 8 8 8 9 9 9 9 8 8 8 7 7 7 6 7 8 8 9 9 9 9 9 8 7 7 6 6 5 4 4 3 3 3 3 3 2 2 2
7 7 7 9 9 10 10 10 10 10 10 10 10 9 10 9 9 8 8 8 8 8 8 8 9 9 9 8 7 7 7 6 5 5 4 4 3 3 3 3 3 3 3
9 9 9 10 11 12 12 12 11 11 11 11 11 10 10 10 10 9 9 9 9 8 8 8 8 8 8 8 8 7 7 6 6 5 5 4 3 3 3 3 3 3 3
11 11 11 12 12 13 13 13 12 12 12 13 12 12 12 12 12 12 11 10 10 10 9 9 9 9 9 8 8 8 7 6 6 6 6 5 4 3 3 3 3 4 4
12 12 11 11 11 11 13 14 14 13 13 14 14 14 14 14 14 14 13 12 12 12 11 10 10 9 9 9 9 8 7 7 7 7 7 6 6 5 4 4 3 4 4
13 12 11 11 12 11 12 12 13 13 14 15 15 15 16 16 15 15 15 14 14 13 12 11 11 11 10 10 10 9 9 8 8 8 8 8 7 5 5 4 4 4 4
15 13 12 11 11 12 12 13 14 14 14 15 16 16 16 16 17 17 17 16 16 15 13 12 12 12 11 11 11 10 10 9 9 9 9 8 8 6 6 5 5 5 5
17 15 13 11 12 13 13 14 15 15 15 16 17 17 17 17 17 18 18 18 17 16 15 14 13 13 13 12 12 11 11 11 11 10 10 9 9 8 7 7 7 7 7
17 17 16 14 13 13 14 15 15 17 17 17 17 17 18 18 18 18 19 18 18 18 17 16 15 15 14 14 13 13 12 12 12 12 11 11 11 10 9 9 9 8 7
19 18 18 16 16 16 15 16 16 17 17 18 18 18 19 18 19 19 19 19 19 18 18 18 17 16 16 16 15 14 14 14 14 14 13 13 12 12 11 10 10 10 9
21 20 19 18 18 18 17 17 18 18 19 20 21 20 20 20 19 20 20 20 20 19 20 19 19 18 17 17 17 16 16 16 16 15 15 15 14 13 13 13 12 11 11
24 23 20 19 20 19 19 19 19 19 20 21 21 21 21 20 20 21 21 21 21 21 22 21 20 20 19 19 19 18 18 18 18 17 17 16 16 16 15 14 14 13 13
24 23 22 22 21 21 21 21 20 21 22 22 23 23 21 20 20 21 21 22 21 22 23 23 22 21 21 20 20 20 20 20 21 20 19 18 18 17 17 16 16 15 15
23 23 22 22 21 21 22 22 23 23 23 24 24 25 24 23 22 22 23 23 23 23 23 24 23 23 23 22 22 23 23 22 21 22 22 21 20 19 19 19 18 18 18
24 23 23 22 22 22 23 23 24 24 25 25 26 26 25 24 24 23 24 24 24 23 23 23 25 25 23 23 23 24 24 24 23 23 24 23 23 22 21 21 21 20 20
24 24 23 23 23 23 24 23 24 25 26 27 27 26 26 25 25 25 25 25 25 24 25 24 24 23 23 24 24 25 25 25 25 24 24 23 23 23 23 23 22 22 22
24 24 24 23 24 24 24 23 25 27 26 27 27 27 27 27 27 27 27 26 26 26 25 26 26 25 25 24 25 25 26 25 26 25 25 24 24 24 24 24 24 24 24
25 26 25 24 25 25 24 24 25 25 25 26 27 27 27 27 29 29 28 28 28 27 27 27 27 27 26 26 26 26 27 27 27 26 26 26 26 25 25 25 26 25 25
25 25 24 24 24 25 25 24 24 25 26 26 27 27 27 27 28 28 28 27 27 28 28 28 27 26 26 27 27 27 27 27 26 26 26 26 26 26 26 26 26 26 27
23 24 24 24 24 24 25 25 25 26 26 27 28 29 29 29 29 29 29 28 28 28 28 28 28 27 26 27 28 27 27 28 28 28 28 29 29 29 29 29 30 30 30
24 24 24 24 24 25 25 25 25 26 27 28 28 28 30 30 29 28 28 28 28 27 27 27 28 27 27 27 27 28 28 28 29 29 30 31 32 32 32 31 31 31 31
25 26 26 26 24 24 25 25 26 26 26 27 28 28 30 30 30 29 28 29 29 28 27 28 29 28 28 28 28 29 29 30 31 31 31 32 32 32 33 33 33 33 33
25 25 25 25 25 25 25 25 26 27 27 27 28 28 29 29 29 29 30 30 28 28 29 29 28 27 28 29 29 29 30 30 31 32 32 33 33 32 33 33 34 35 34
24 23 23 23 24 25 25 25 26 26 26 26 26 26 27 28 27 27 28 28 28 28 28 28 27 27 28 28 28 29 30 31 31 31 32 32 32 31 32 33 34 35 35
Wind_Direction
307 288 282 279 262 247 240 234 226 227 228 229 231 239 245 255 271 288 305 313 321 326 331 334 337 334 331 328 327 323 321 324 327 330 337 348 353 354 355 356 355 2 13
298 281 269 270 265 252 245 242 235 231 235 239 240 242 242 248 261 273 288 301 309 316 322 326 330 330 327 325 324 321 317 317 318 322 324 335 339 339 341 343 345 355 9
300 289 275 267 267 260 249 244 243 241 241 244 247 249 251 252 259 267 276 285 295 303 311 317 322 324 324 321 319 315 310 309 307 308 304 314 324 324 330 337 340 341 357
295 286 280 268 263 262 254 249 246 246 246 247 250 254 255 255 260 266 272 277 286 292 299 306 311 315 317 317 313 308 303 300 294 292 290 297 309 313 319 326 329 333 344
296 280 279 268 263 259 256 253 249 248 248 250 254 258 258 258 261 266 270 275 279 284 289 295 299 305 307 308 306 303 297 290 282 280 282 285 294 306 317 324 327 331 336
299 286 277 275 265 259 254 252 251 250 250 251 252 255 256 258 261 262 266 271 273 276 279 284 288 293 297 298 298 297 291 282 274 271 273 273 277 289 306 319 328 334 335
299 291 277 276 273 263 256 252 253 254 254 253 251 253 257 256 258 259 263 267 270 272 276 276 279 283 286 288 289 288 283 274 269 267 267 266 270 279 293 306 317 330 333
298 295 282 276 272 263 259 254 254 256 257 256 256 254 256 257 259 261 263 265 269 271 272 272 274 276 277 279 281 279 275 269 266 263 264 264 265 271 282 290 300 312 321
297 291 286 282 275 266 258 256 255 255 256 257 258 259 260 259 260 261 264 264 266 268 268 269 270 270 271 274 274 272 269 267 264 263 263 262 262 265 272 278 285 293 301
296 290 282 279 277 269 264 260 255 254 255 256 257 259 261 263 262 262 264 264 265 267 266 266 266 266 267 270 270 267 265 263 263 262 263 262 263 262 264 271 277 283 291
294 288 284 283 279 269 268 264 259 254 256 259 259 259 261 263 263 262 263 265 267 268 267 265 264 264 263 265 267 266 261 260 261 261 260 261 262 261 262 267 272 274 281
291 288 284 281 280 275 271 264 260 260 259 258 261 260 259 260 262 263 262 263 264 266 266 264 263 263 260 260 261 261 259 258 258 258 258 258 259 259 259 265 270 270 272
291 288 285 282 280 276 271 266 262 260 258 257 257 258 258 257 258 260 261 261 261 262 264 265 263 262 261 257 256 256 256 255 255 256 257 257 257 256 258 263 266 267 270
290 290 286 282 279 276 271 266 262 258 256 258 259 257 257 255 256 257 259 259 260 261 264 264 262 263 262 258 255 253 252 251 251 252 254 255 256 257 258 260 262 266 269
287 289 288 286 281 277 273 269 266 263 260 260 260 256 256 255 255 256 257 258 259 261 262 262 260 262 260 258 255 252 251 250 249 249 251 252 254 255 257 258 261 265 267
285 285 284 282 285 281 277 273 269 263 262 262 260 258 256 253 254 256 255 256 257 259 261 261 259 258 257 258 255 252 251 250 249 248 249 251 253 255 257 258 259 263 265
283 283 283 281 281 280 280 274 269 264 261 263 258 259 255 253 254 253 253 255 256 257 259 259 258 256 254 255 254 253 251 249 248 248 249 251 252 253 256 259 261 262 263
280 281 282 280 279 278 279 274 269 269 265 263 262 258 256 256 254 249 251 252 256 257 257 257 258 255 252 252 252 251 251 248 245 247 248 251 252 254 257 260 263 263 262
281 279 279 278 278 277 277 274 272 269 270 267 265 262 258 257 253 251 251 252 254 255 258 257 257 254 252 251 250 251 251 247 244 245 247 249 253 256 257 260 261 263 264
280 278 278 276 276 276 274 275 275 273 272 271 266 263 260 254 252 252 252 251 253 254 258 259 256 253 253 252 252 249 246 245 243 246 247 249 252 254 257 258 259 263 264
282 280 278 277 277 276 274 274 271 272 273 270 269 264 262 256 252 254 255 254 254 254 255 257 255 254 254 253 251 247 243 242 243 246 245 246 249 252 256 257 259 263 264
283 282 280 279 278 275 273 270 269 268 269 270 270 267 262 260 258 256 254 255 257 254 253 254 252 252 253 251 248 245 245 244 245 246 245 246 249 253 256 258 261 263 263
283 283 283 281 277 273 272 271 270 269 268 269 269 266 261 261 258 254 255 257 256 256 253 251 250 250 250 248 244 245 248 246 246 246 248 250 253 255 255 259 262 263 263
284 283 282 281 277 273 271 270 271 271 269 268 267 264 262 259 258 256 256 255 254 255 256 253 248 251 249 248 247 249 249 248 248 248 249 252 254 256 258 260 260 262 264
285 285 282 281 279 277 273 269 271 273 270 267 266 263 260 258 256 255 256 255 254 253 253 252 249 249 247 247 247 248 249 249 248 249 251 254 255 257 259 259 260 263 265
287 285 283 281 280 279 275 271 269 270 269 266 265 264 260 257 255 254 254 254 253 252 249 247 248 248 247 247 248 247 248 250 251 251 253 254 256 257 258 260 263 265 267
Height
5882 5883 5883 5884 5885 5886 5887 5887 5888 5890 5891 5892 5893 5894 5895 5896 5898 5899 5900 5900 5901 5901 5901 5901 5902 5901 5901 5901 5900 5900 5899 5899 5899 5899 5899 5899 5899 5898 5898 5898 5898 5897 5897
5882 5882 5883 5883 5884 5885 5885 5886 5887 5888 5890 5891 5892 5893 5894 5895 5896 5897 5898 5899 5900 5901 5901 5901 5901 5901 5901 5900 5900 5900 5899 5899 5899 5899 5899 5899 5899 5899 5899 5898 5898 5898 5897
5881 5881 5881 5882 5883 5883 5884 5884 5885 5886 5888 5889 5890 5892 5893 5894 5895 5896 5897 5898 5899 5899 5900 5900 5900 5900 5900 5900 5900 5899 5899 5899 5899 5899 5899 5899 5899 5899 5899 5899 5898 5898 5898
5879 5880 5880 5880 5881 5882 5882 5883 5883 5885 5886 5887 5888 5890 5891 5892 5893 5894 5895 5896 5897 5898 5898 5899 5899 5899 5899 5899 5899 5899 5899 5899 5898 5899 5899 5899 5899 5899 5899 5899 5898 5898 5898
5878 5878 5878 5878 5879 5880 5880 5881 5881 5882 5883 5885 5886 5887 5888 5890 5891 5892 5893 5894 5895 5896 5896 5897 5897 5898 5898 5898 5898 5898 5898 5898 5898 5898 5898 5899 5899 5899 5899 5898 5898 5898 5898
5876 5876 5876 5876 5876 5877 5878 5879 5879 5880 5881 5882 5884 5885 5886 5887 5888 5890 5891 5892 5893 5893 5894 5895 5896 5896 5896 5897 5897 5897 5897 5897 5897 5898 5898 5898 5898 5898 5898 5898 5898 5898 5898
5874 5874 5874 5874 5874 5875 5875 5876 5877 5878 5879 5880 5881 5882 5883 5884 5886 5887 5888 5889 5890 5891 5892 5892 5893 5894 5895 5895 5896 5896 5896 5896 5897 5897 5897 5897 5897 5897 5897 5897 5897 5897 5897
5872 5872 5872 5872 5872 5873 5873 5874 5875 5876 5877 5878 5879 5880 5881 5882 5883 5884 5885 5886 5887 5888 5889 5890 5891 5892 5893 5893 5894 5894 5895 5895 5895 5895 5896 5896 5896 5896 5896 5896 5897 5897 5897
5869 5869 5869 5869 5869 5870 5870 5871 5872 5873 5874 5875 5877 5878 5878 5879 5880 5881 5882 5883 5884 5885 5886 5887 5888 5889 5890 5891 5892 5892 5893 5893 5893 5894 5894 5894 5895 5895 5895 5895 5896 5896 5896
5866 5866 5866 5867 5867 5867 5868 5868 5869 5870 5871 5873 5874 5875 5875 5876 5877 5878 5879 5880 5881 5882 5883 5884 5885 5886 5887 5888 5889 5890 5890 5891 5891 5892 5892 5893 5893 5893 5894 5894 5894 5894 5894
5863 5863 5863 5864 5864 5864 5864 5865 5866 5867 5868 5869 5870 5871 5872 5873 5874 5875 5876 5877 5878 5879 5880 5881 5882 5883 5884 5885 5886 5887 5888 5888 5889 5889 5890 5891 5891 5892 5892 5892 5893 5893 5893
5860 5860 5860 5860 5860 5861 5861 5861 5863 5864 5865 5866 5867 5868 5868 5869 5870 5871 5872 5873 5874 5875 5876 5877 5878 5879 5880 5882 5883 5884 5884 5885 5886 5887 5887 5888 5889 5889 5890 5890 5890 5891 5891
5855 5856 5856 5857 5857 5857 5858 5858 5859 5860 5861 5861 5862 5863 5864 5865 5866 5867 5868 5869 5870 5871 5872 5873 5874 5875 5876 5878 5879 5880 5881 5882 5883 5883 5884 5885 5886 5887 5887 5887 5888 5888 5889
5851 5851 5852 5852 5853 5853 5854 5854 5854 5855 5856 5857 5858 5859 5860 5861 5861 5862 5863 5865 5866 5867 5868 5869 5870 5871 5872 5873 5875 5876 5877 5878 5879 5880 5881 5882 5883 5884 5884 5884 5885 5886 5886
5846 5847 5848 5848 5849 5849 5849 5849 5850 5851 5851 5852 5853 5854 5855 5856 5857 5858 5859 5860 5861 5862 5863 5864 5865 5866 5867 5868 5870 5871 5873 5874 5875 5876 5877 5878 5879 5880 5881 5881 5882 5882 5882
5842 5842 5842 5843 5844 5844 5844 5844 5844 5844 5845 5846 5847 5848 5849 5851 5852 5853 5854 5855 5856 5857 5857 5858 5859 5861 5862 5864 5865 5866 5868 5869 5870 5872 5873 5874 5875 5876 5877 5877 5878 5878 5879
5837 5837 5837 5838 5838 5838 5838 5838 5838 5838 5838 5840 5840 5842 5843 5844 5846 5847 5848 5850 5850 5851 5852 5853 5854 5855 5857 5858 5860 5861 5862 5864 5865 5867 5868 5869 5870 5871 5872 5873 5874 5874 5875
5832 5832 5832 5832 5832 5832 5832 5832 5831 5831 5832 5833 5834 5835 5836 5838 5839 5840 5842 5843 5844 5845 5846 5848 5848 5850 5851 5853 5854 5856 5857 5858 5860 5862 5863 5864 5865 5866 5867 5868 5869 5869 5870
5826 5826 5826 5827 5826 5826 5826 5826 5826 5826 5827 5827 5828 5828 5830 5831 5833 5834 5835 5837 5838 5839 5840 5842 5843 5844 5845 5847 5848 5850 5851 5853 5854 5856 5858 5859 5860 5861 5862 5863 5864 5864 5865
5821 5820 5820 5821 5821 5820 5820 5821 5820 5820 5821 5821 5821 5821 5823 5825 5827 5828 5829 5830 5831 5833 5834 5836 5837 5838 5839 5841 5842 5844 5845 5847 5849 5850 5852 5853 5855 5856 5857 5857 5858 5858 5859
5815 5815 5814 5814 5814 5814 5814 5814 5814 5814 5815 5815 5815 5816 5817 5818 5819 5820 5822 5823 5824 5826 5828 5829 5831 5832 5833 5834 5836 5837 5839 5841 5843 5844 5846 5848 5849 5850 5851 5851 5852 5852 5853
5809 5809 5809 5808 5808 5808 5808 5808 5808 5808 5808 5808 5809 5809 5810 5811 5812 5813 5814 5816 5817 5819 5820 5822 5824 5826 5827 5828 5830 5831 5833 5835 5836 5838 5840 5841 5843 5843 5844 5845 5845 5846 5846
5804 5803 5802 5802 5801 5801 5801 5801 5801 5801 5801 5802 5802 5802 5803 5803 5804 5806 5808 5809 5811 5812 5814 5816 5817 5819 5820 5822 5823 5825 5827 5829 5830 5832 5833 5835 5836 5837 5837 5838 5838 5838 5839
5798 5797 5796 5795 5794 5794 5794 5794 5794 5794 5794 5794 5795 5795 5795 5796 5797 5799 5800 5802 5804 5805 5807 5809 5810 5812 5813 5815 5816 5818 5821 5822 5824 5825 5826 5827 5828 5829 5829 5830 5830 5831 5831
5791 5790 5790 5789 5788 5788 5788 5787 5787 5787 5786 5787 5787 5787 5788 5789 5790 5792 5793 5795 5797 5798 5800 5801 5803 5805 5807 5808 5810 5811 5813 5815 5816 5818 5819 5820 5821 5822 5822 5822 5822 5823 5823
5785 5784 5783 5782 5782 5781 5780 5780 5780 5779 5779 5779 5779 5780 5780 5781 5783 5785 5786 5788 5790 5791 5792 5793 5795 5797 5799 5801 5803 5805 5806 5808 5809 5811 5812 5813 5813 5814 5814 5814 5814 5814 5814